Location: Kellogg
(38.0159°N, 90.0546°W)
Time: 22:47:46
(UTC+00:00)

Envisat - Pass Details

Date: 11 August 2024
Orbit: 762 x 764 km, 98.3° (Epoch: 08 September)

Event Time Altitude Azimuth Distance (km) Brightness Sun altitude
Rises 07:54:36 0° 34° (NNE) 3,231 7.4 -31.0°
Reaches altitude 10° 07:57:56 10° 57° (ENE) 2,300 6.2 -30.7°
Maximum altitude 08:00:48 15° 92° (E) 1,965 5.4 -30.4°
Enters shadow 08:02:36 13° 115° (ESE) 2,101 5.3 -30.2°
